Weather History for Nenana, AK

Change the Weather History Date:

Thursday, May 9, 2013

  Actual Average Record
Temperature  
Mean Temperature 48 °F -  
Max Temperature 55 °F 55 °F 75 °F (1968)
Min Temperature 37 °F 32 °F 25 °F (2011)
Degree Days  
Heating Degree Days 17    
Moisture  
Dew Point 23 °F    
Average Humidity 54    
Maximum Humidity 100    
Minimum Humidity 24    
Precipitation  
Precipitation 0.00 in - - ()
Sea Level Pressure  
Sea Level Pressure 30.28 in    
Wind  
Wind Speed 3 mph (East)    
Max Wind Speed 14 mph    
Max Gust Speed -    
Visibility 10 miles    
Events      
Averages and records for this station are not official NWS values.
T = Trace of Precipitation, MM = Missing Value Source: NWS Daily Summary

Daily Weather History Graph

Daily Weather History Graph

Search for Another Location

Airport:

Trip Planner

Search our weather history database for the weather conditions in past years. The results will help you decide how hot, cold, wet, or windy it might be!

Date:

Astronomy

May. 09, 2013 Rise Set
Actual Time 4:55 AM AKDT 10:52 PM AKDT
Civil Twilight 3:27 AM AKDT 12:23 AM AKDT
Nautical Twilight Sun does not rise Sun does not rise
Astronomical Twilight Sun does not rise Sun does not rise
Moon 5:01 AM AKDT (5/9) 10:55 PM AKDT (5/9)
Length of Visible Light 20h 56m
Length of Day
17h 56m
Waning Crescent, 0% of the Moon is Illuminated
May 9
Waning Crescent
May 9
New
May 17
First Quarter
May 24
Full
May 31
Last Quarter

Hourly Weather History & Observations

Time (AKDT) Temp. Windchill Dew Point Humidity Pressure Visibility Wind Dir Wind Speed Gust Speed Precip Events Conditions
12:53 AM 30.0 °F - 21.9 °F 72% 30.35 in 10.0 mi Calm Calm - N/A   Clear
1:53 AM 28.0 °F - 21.0 °F 75% 30.35 in 10.0 mi Calm Calm - N/A   Clear
2:53 AM 28.0 °F - 21.0 °F 75% 30.36 in 10.0 mi Calm Calm - N/A   Clear
3:53 AM 26.1 °F - 19.9 °F 78% 30.36 in 10.0 mi Calm Calm - N/A   Clear
4:53 AM 25.0 °F - 19.9 °F 81% 30.36 in 10.0 mi Calm Calm - N/A   Clear
5:53 AM 26.1 °F - 21.0 °F 81% 30.35 in 10.0 mi Calm Calm - N/A   Clear
6:53 AM 32.0 °F 25.6 °F 21.0 °F 64% 30.34 in 10.0 mi East 6.9 mph - N/A   Clear
7:53 AM 37.0 °F 33.3 °F 21.0 °F 52% 30.33 in 10.0 mi ESE 4.6 mph - N/A   Clear
9:53 AM 42.1 °F 34.9 °F 19.0 °F 40% 30.32 in 10.0 mi ENE 13.8 mph - N/A   Clear
10:53 AM 44.1 °F 38.1 °F 18.0 °F 35% 30.31 in 10.0 mi ENE 11.5 mph - N/A   Clear
11:53 AM 45.0 °F 40.1 °F 18.0 °F 34% 30.30 in 10.0 mi ESE 9.2 mph - N/A   Clear
12:53 PM 46.0 °F 41.4 °F 18.0 °F 33% 30.29 in 10.0 mi ENE 9.2 mph - N/A   Clear
1:53 PM 48.0 °F - 18.0 °F 30% 30.29 in 10.0 mi East 9.2 mph - N/A   Clear
2:53 PM 48.9 °F - 18.0 °F 29% 30.27 in 10.0 mi ESE 8.1 mph - N/A   Clear
4:53 PM 52.0 °F - 17.1 °F 25% 30.24 in 10.0 mi East 10.4 mph - N/A   Clear
5:53 PM 53.1 °F - 18.0 °F 25% 30.22 in 10.0 mi East 5.8 mph - N/A   Clear
6:53 PM 53.1 °F - 18.0 °F 25% 30.22 in 10.0 mi NE 4.6 mph - N/A   Clear
7:53 PM 54.0 °F - 18.0 °F 24% 30.21 in 10.0 mi East 4.6 mph - N/A   Clear
9:53 PM 46.9 °F - 18.0 °F 32% 30.21 in 10.0 mi Calm Calm - N/A   Clear
10:53 PM 43.0 °F - 23.0 °F 45% 30.21 in 10.0 mi Calm Calm - N/A   Clear
11:53 PM 37.9 °F - 21.0 °F 51% 30.22 in 10.0 mi Calm Calm - N/A   Clear